This demonstration page uses our WeatherBlox Daily Observations layout. Learn more.

Left ArrowRight Arrow

39.08367, -84.50855

Hourly Observations for April 29, 2019

Temp ( °F °C ) Dew Point ( °F °C ) Humidity (%) Winds ( mph kmh ) Pressure ( in mb ) Visibility ( mi km ) Precip ( " mm )
12:53 am 00:53 Clear 45 7.2 41 5 86 86 NE 5 7 30.22 1024 10 16.0934 0 0
2:53 am 02:53 Clear 45 7.2 39 3.9 80 80 ENE 5 7 30.2 1023 10 16.0934 0 0
3:53 am 03:53 Clear 44 6.7 39 3.9 83 83 VRB 3 6 30.19 1022 10 16.0934 0 0
4:53 am 04:53 Clear 43 6.1 39 3.9 86 86 N 3 6 30.19 1022 10 16.0934 0 0
5:53 am 05:53 Clear 43 6.1 41 5 93 93 Calm 30.16 1022 10 16.0934 0 0
6:53 am 06:53 Sunny 46 7.8 40 4.4 79 79 NNE 3 6 30.16 1021 10 16.0934 0 0
7:53 am 07:53 Sunny 47 8.3 42 5.6 83 83 VRB 3 6 30.17 1022 10 16.0934 0 0
8:53 am 08:53 Sunny 50 10 44 6.7 80 80 E 7 11 30.16 1021 10 16.0934 0 0
9:53 am 09:53 Sunny 53 11.7 45 7.2 74 74 ENE 6 9 30.14 1021 10 16.0934 0 0
10:53 am 10:53 Sunny 59 15 48 8.9 67 67 SE 13 20 30.09 1019 10 16.0934 0 0
11:53 am 11:53 Mostly Cloudy 61 16.1 49 9.4 65 65 SSW 7 11 30.12 1020 10 16.0934 0 0
12:53 pm 12:53 Sunny 65 18.3 52 11.1 63 63 S 8 13 30.06 1018 10 16.0934 0 0
1:53 pm 13:53 Mostly Sunny 68 20 55 12.8 63 63 SSW 12 19 30.04 1017 10 16.0934 0 0
2:53 pm 14:53 Sunny 71 21.7 58 14.4 63 63 S 14 22 29.97 1015 10 16.0934 0 0
3:53 pm 15:53 Mostly Sunny 76 24.4 61 16.1 60 60 S 18 30 29.92 1013 10 16.0934 0 0
4:53 pm 16:53 Mostly Cloudy 77 25 58 14.4 52 52 SW 20 31 29.96 1015 10 16.0934 0 0
5:53 pm 17:53 Partly Cloudy 76 24.4 58 14.4 54 54 SW 18 30 29.98 1015 10 16.0934 0 0
6:53 pm 18:53 Mostly Sunny 76 24.4 54 12.2 47 47 SW 15 24 29.99 1016 10 16.0934 0 0
7:53 pm 19:53 Mostly Sunny 74 23.3 55 12.8 52 52 WSW 10 17 30.01 1016 10 16.0934 0 0
8:53 pm 20:53 Mostly Clear 70 21.1 54 12.2 57 57 WSW 8 13 30.04 1017 10 16.0934 0 0
9:53 pm 21:53 Mostly Cloudy 65 18.3 56 13.3 73 73 SSW 3 6 30.06 1018 10 16.0934 0 0
10:53 pm 22:53 Mostly Clear 63 17.2 56 13.3 78 78 N 5 7 30.08 1019 10 16.0934 0 0
11:53 pm 23:53 Cloudy 65 18.3 57 13.9 76 76 NNE 6 9 30.11 1020 10 16.0934 0 0

Powered by AerisWeather